Tracking 23752 objects as of 23-Oct-2021
HD Live streaming from Space Station
objects crossing your sky now

SL-8 DEB

Track SL-8 DEB now!
10-day predictions


NORAD ID: 21177
Int'l Code: 1991-009AQ
Perigee: 1,510.9 km
Apogee: 1,745.5 km
Inclination: 74.1 °
Period: 118.7 minutes
Semi major axis: 7999 km
RCS: 0.199 m2 (medium)
Launch date: February 12, 1991
Source: Commonwealth of Independent States (former USSR) (CIS)
Launch site: PLESETSK MISSILE AND SPACE COMPLEX (PKMTR)

Note: This is SATELLITE DEBRIS
aabbcc
Your satellite tracking list
Your tracking list is empty




NASA's NSSDC Master Catalog

Two Line Element Set (TLE):
1 21177U 91009AQ  21295.32713257  .00000228  00000-0  24613-2 0  9996
2 21177  74.1117  31.9506 0146592 314.2843 104.1718 12.13482935356876
Source of the keplerian elements: AFSPC